Address 0x5cb9c97c5028c81db5d240805e5c48986272bf6f

 

Overview

Balance:
0 BNB

BNB Value:
$0.00

Token:
Ad
Ad
Txn Hash
Block
From
To
Value [Txn Fee]
0x0047762ecfea0279b747b27ec8e3a7e4f43c8a9c1f5650888c2c3ea6011444ce63391272021-04-06 19:42:2415 days 6 hrs ago0x5cb9c97c5028c81db5d240805e5c48986272bf6fOUT0xafcf9e0428f04d5c1914050ea53148b284c8f5d70.063190249318257 BNB0.00021
0xacdec54903e87150f47153145ad8fcde07ad00d56e3f5ce12bea3333134e02ed63391112021-04-06 19:41:3615 days 6 hrs ago0x5cb9c97c5028c81db5d240805e5c48986272bf6fOUT PancakeSwap: Router0 BNB0.00195597
0x91d423cb353a9a86adf5e07888205db95435f4599c81ff4509bf3d610948257563391042021-04-06 19:41:1515 days 6 hrs ago0x5cb9c97c5028c81db5d240805e5c48986272bf6fOUT Nyan Cat: NCAT Token0 BNB0.00044452
0x329247af1529faca59702bd460ac6ffcf277a4deb2afdf40edf6110ca272228b63365822021-04-06 17:33:5215 days 8 hrs ago0x5cb9c97c5028c81db5d240805e5c48986272bf6fOUT PancakeSwap: Router0.06720769 BNB0.00183108
0x92de1739149df2b793c023824c4022d7611ca5c135563bb8ab92eb0f8eed32c463364972021-04-06 17:29:3715 days 9 hrs agoBinance: Hot Wallet IN 0x5cb9c97c5028c81db5d240805e5c48986272bf6f0.07720769 BNB0.000231
0x995702e22d4d9ae7524cf27bf08a82525fffc2f4507248c638abc98a9cdef08658638102021-03-21 3:31:3631 days 22 hrs ago0x5cb9c97c5028c81db5d240805e5c48986272bf6fOUT0xafcf9e0428f04d5c1914050ea53148b284c8f5d70.160019547269998 BNB0.00021
0xd29724a630135ec76d4c9a70c8f52c680c1a7f17098c6c4f99da7513399ae1d858623072021-03-21 2:14:5432 days 15 mins ago0x5cb9c97c5028c81db5d240805e5c48986272bf6fOUT PancakeSwap: Router0 BNB0.00104218
0xc165a001b99c9471ad8565a55512739d74d64d9ed6951f27947e3de2ade51a9858623002021-03-21 2:14:3332 days 15 mins ago0x5cb9c97c5028c81db5d240805e5c48986272bf6fOUT 0x7cce48f8f4b67e2318f22f676975c49ff58d0fbe0 BNB0.0004443
0xcf594f3fcd2fab75ca65317165bfb1ef4b6fae428349a4fc443b34f0ce9f579458611062021-03-21 1:14:5132 days 1 hr ago0x5cb9c97c5028c81db5d240805e5c48986272bf6fOUT PancakeSwap: Router0.17074831 BNB0.00128196
0x48b1218a9f4707c18f0b589e848666c6a08ee7c3ac0942af1dd8408cb6edf34458610962021-03-21 1:14:2132 days 1 hr agoBinance: Hot Wallet 2 IN 0x5cb9c97c5028c81db5d240805e5c48986272bf6f0.18074831 BNB0.000231
0x8ee4005b649ba080c341083b064cf9d0add3fc74a987f8373b2b266207e32c5858433252021-03-20 10:25:1032 days 16 hrs ago0x5cb9c97c5028c81db5d240805e5c48986272bf6fOUT0xafcf9e0428f04d5c1914050ea53148b284c8f5d70.196642274553932 BNB0.00021
0x17346f60014d672bfa7e953ab76b042490da1e51ddae9d8bc1cf30c67e43a48158433082021-03-20 10:24:1932 days 16 hrs ago0x5cb9c97c5028c81db5d240805e5c48986272bf6fOUT PancakeSwap: Router0 BNB0.00137988
0x6b1e6dc56e27de837841a9c2aec5eb9cccf6392ded084a3f16871d6fd70c62cc58432992021-03-20 10:23:5232 days 16 hrs ago0x5cb9c97c5028c81db5d240805e5c48986272bf6fOUT Cats Finance: CAT Token0 BNB0.00044276
0xbe0ad829e11d96c8b8994a1116315fca7e425cbc9d97a03db567d5a2c436695358376412021-03-20 5:40:5532 days 20 hrs ago0x5cb9c97c5028c81db5d240805e5c48986272bf6fOUT PancakeSwap: Router0.206680413146204 BNB0.00147388
0x31270302bf2839299250365e532d99005dc29f43881f052949e751b4599299ff58374102021-03-20 5:29:2232 days 21 hrs ago0x5cb9c97c5028c81db5d240805e5c48986272bf6fOUT PancakeSwap: Router0 BNB0.00191878
0xe3f23094a9291a3b2771948408c00e24ab69a8f19661042b3cbb3e1088ad6ffe58373992021-03-20 5:28:4932 days 21 hrs ago0x5cb9c97c5028c81db5d240805e5c48986272bf6fOUT Dragon Finance: DRAGON Token0 BNB0.00044509
0x5b06e31a4c42d3fc78d2ccb886f11d337a1cea6fc4c335820e8cee1d6b5322dc58369842021-03-20 5:08:0432 days 21 hrs ago0x5cb9c97c5028c81db5d240805e5c48986272bf6fOUT Just Liquidity: Router0.20631848 BNB0.00178172
0x964a2afde67aec8ecb19d4a7ff0c7109cc59e597ffc7754aff8bf74cc3fadd5858361622021-03-20 4:26:5832 days 22 hrs agoBinance: Hot Wallet IN 0x5cb9c97c5028c81db5d240805e5c48986272bf6f0.21631848 BNB0.000231
0xe7dea88c689f9084851c75741b7783f51d33f21ae8604362c713a316e3833eaf58341432021-03-20 2:46:0132 days 23 hrs ago0x5cb9c97c5028c81db5d240805e5c48986272bf6fOUT0xafcf9e0428f04d5c1914050ea53148b284c8f5d70.214118483945045 BNB0.00021
0x308a32d06dc4b68db8e88cf87ffaee61767f7b13021116c45775ab7c6db1d23d58341152021-03-20 2:44:3732 days 23 hrs ago0x5cb9c97c5028c81db5d240805e5c48986272bf6fOUT PancakeSwap: Router0 BNB0.00102234
0x32e455f3feb11a7bf3c8936d4754c863964296cb899b48f06d82d4d186813ab558340822021-03-20 2:42:5832 days 23 hrs ago0x5cb9c97c5028c81db5d240805e5c48986272bf6fOUT Binance: BUSD Stablecoin0 BNB0.00044406
0xc683afe0a5b257a511a6fcf611503ddca77948d2b556e2ee3ca29cd8c257abc458340632021-03-20 2:42:0132 days 23 hrs agoBinance: Hot Wallet 2 IN 0x5cb9c97c5028c81db5d240805e5c48986272bf6f0.03787609 BNB0.000231
0x5728e7f05b45ca495eca6da588fcd6f5704353d06c4f41976414cd266ec5fbd358336452021-03-20 2:21:0733 days 9 mins ago0x5cb9c97c5028c81db5d240805e5c48986272bf6fOUT0xafcf9e0428f04d5c1914050ea53148b284c8f5d70.008646061905561 BNB0.00021
0x614ef3e4b0ff33f4b80dbebe9bc3470673f007dead241d18f7792fdfbd84ef4758336212021-03-20 2:19:5533 days 10 mins ago0x5cb9c97c5028c81db5d240805e5c48986272bf6fOUT PancakeSwap: Router0.050862753438265 BNB0.00098746
0x07075c015300d5c5e299ec6cbbfab0aaee1b5e454914d89b3015849699a7a7d258330122021-03-20 1:49:2833 days 41 mins ago0x5cb9c97c5028c81db5d240805e5c48986272bf6fOUT PancakeSwap: Router0 BNB0.00113378
[ Download CSV Export 
Latest 9 internal transactions
Parent Txn Hash Block From To Value
0xacdec54903e87150f47153145ad8fcde07ad00d56e3f5ce12bea3333134e02ed63391112021-04-06 19:41:3615 days 6 hrs ago PancakeSwap: Router0x5cb9c97c5028c81db5d240805e5c48986272bf6f0.057631819318257306 BNB
0xd29724a630135ec76d4c9a70c8f52c680c1a7f17098c6c4f99da7513399ae1d858623072021-03-21 2:14:5432 days 15 mins ago PancakeSwap: Router0x5cb9c97c5028c81db5d240805e5c48986272bf6f0.1529979872699984 BNB
0x17346f60014d672bfa7e953ab76b042490da1e51ddae9d8bc1cf30c67e43a48158433082021-03-20 10:24:1932 days 16 hrs ago PancakeSwap: Router0x5cb9c97c5028c81db5d240805e5c48986272bf6f0.190148794553932969 BNB
0x31270302bf2839299250365e532d99005dc29f43881f052949e751b4599299ff58374102021-03-20 5:29:2232 days 21 hrs ago PancakeSwap: Router0x5cb9c97c5028c81db5d240805e5c48986272bf6f0.210826003146204147 BNB
0x308a32d06dc4b68db8e88cf87ffaee61767f7b13021116c45775ab7c6db1d23d58341152021-03-20 2:44:3732 days 23 hrs ago PancakeSwap: Router0x5cb9c97c5028c81db5d240805e5c48986272bf6f0.177918793945045168 BNB
0x07075c015300d5c5e299ec6cbbfab0aaee1b5e454914d89b3015849699a7a7d258330122021-03-20 1:49:2833 days 41 mins ago PancakeSwap: Router0x5cb9c97c5028c81db5d240805e5c48986272bf6f0.009782845343826554 BNB
0xca64b59b6605e1597ebc6616f8253f41c6d418e48ede86cc5f26d5067e1d2b1454180822021-03-05 15:35:2247 days 10 hrs ago 0x65b302edc264604b335487542559658f79128ea50x5cb9c97c5028c81db5d240805e5c48986272bf6f0.030565991516166608 BNB
0xf2473d0263ef61f4d121907048156eb9bbbdb9afd783605b7986f5ac7528498d53912352021-03-04 17:13:0048 days 9 hrs ago PancakeSwap: Router0x5cb9c97c5028c81db5d240805e5c48986272bf6f0.037370455045530427 BNB
0xc50af42048c2a0ecd3e8fb3bc1508d81895843dd1a276648b35de3b80f05413053888502021-03-04 15:13:4548 days 11 hrs ago BSC: Token Hub0x5cb9c97c5028c81db5d240805e5c48986272bf6f0.0395 BNB
[ Download CSV Export 
Loading

Contract Name:
0 BNB

Compiler Version
0

Optimization Enabled:
0 BNB

Other Settings:
-NA-
Block Transaction Gas Used Reward
Age Block Fee Address BC Fee Address Voting Power Jailed Incoming
Block Uncle Number Difficulty Gas Used Reward
Loading
Loading
Make sure to use the "Vote Down" button for any spammy posts, and the "Vote Up" for interesting conversations.